This is the latest recevied weather packets stored in our database for station/object AB0TJ. If no packets are shown the sender has not sent any weather packets the latest 10 day(s).
| Time | Temp. | Humidity | Pressure | Rain* | Wind** | Luminosity | Snow |
|---|---|---|---|---|---|---|---|
| 1778146864 | 6.11° C | 48% | 1021.8 hPa | 0 mm | - | 0 W/m² | - |
| 1778146288 | 6.11° C | 46% | 1021.7 hPa | 0 mm | - | 0 W/m² | - |
| 1778145724 | 6.67° C | 45% | 1021.8 hPa | 0 mm | - | 0 W/m² | - |
| 1778145149 | 6.67° C | 44% | 1021.7 hPa | 0 mm | - | 0 W/m² | - |
| 1778144627 | 5.56° C | 43% | 1021.6 hPa | 0 mm | - | 0 W/m² | - |
| 1778144149 | 5.56° C | 45% | 1021.7 hPa | 0 mm | - | 0 W/m² | - |
| 1778143649 | 5.56° C | 48% | 1021.6 hPa | 0 mm | - | 0 W/m² | - |
| 1778143088 | 5.56° C | 48% | 1021.8 hPa | 0 mm | - | 0 W/m² | - |
| 1778142599 | 5.56° C | 47% | 1022 hPa | 0 mm | - | 0 W/m² | - |
| 1778142079 | 5.56° C | 47% | 1021.9 hPa | 0 mm | - | 0 W/m² | - |
| 1778141513 | 5.56° C | 46% | 1021.9 hPa | 0 mm | - | 0 W/m² | - |
| 1778140969 | 5.56° C | 47% | 1021.9 hPa | 0 mm | - | 0 W/m² | - |
| 1778140413 | 6.11° C | 46% | 1021.8 hPa | 0 mm | - | 0 W/m² | - |
| 1778139929 | 6.11° C | 45% | 1022.1 hPa | 0 mm | - | 0 W/m² | - |
| 1778139428 | 6.11° C | 44% | 1022.1 hPa | 0 mm | - | 0 W/m² | - |
| 1778138933 | 6.11° C | 44% | 1021.8 hPa | 0 mm | - | 0 W/m² | - |
| 1778138354 | 6.11° C | 44% | 1022 hPa | 0 mm | - | 0 W/m² | - |
| 1778137829 | 6.11° C | 45% | 1021.8 hPa | 0 mm | - | 0 W/m² | - |
| 1778137274 | 6.11° C | 44% | 1021.8 hPa | 0 mm | - | 0 W/m² | - |
| 1778136706 | 5.56° C | 43% | 1021.8 hPa | 0 mm | - | 0 W/m² | - |
| 1778136149 | 5.56° C | 43% | 1021.8 hPa | 0 mm | - | 0 W/m² | - |
| 1778135624 | 5.56° C | 44% | 1022.1 hPa | 0 mm | - | 0 W/m² | - |
| 1778135144 | 5.56° C | 45% | 1021.7 hPa | 0 mm | - | 0 W/m² | - |
| 1778134574 | 5.56° C | 45% | 1021.6 hPa | 0 mm | - | 0 W/m² | - |
| 1778134051 | 5.56° C | 46% | 1021.9 hPa | 0 mm | - | 0 W/m² | - |
* Rain latest hour (hover to see other rain measurements)
** Current wind speed in m/s (hover to see current wind gust speed)